sat.trackr.live / text

‹ back to catalog

STARLINK-33604

NORAD 63070 · 2025-035U

PAYLOAD ACTIVE UNKNOWN

§ Identity

Operator
Country
US
Launch date
2025-02-21
Launch site
AFETR
Launch vehicle
Mass (kg)
RCS (m²)

Purposes: comms

External: N2YO · Heavens-Above · Gunter

§ Orbital elements

Epoch: 2026-09-20T00:11:56.680224Z

Period
94.27 min
Inclination
43.0017°
Eccentricity
0.0001597
Mean motion
15.27584478 rev/d
Perigee alt
481.9 km
Apogee alt
484.1 km
Semi-major
6,861.2 km
B*
3.5521e-4
RAAN
130.0717°
Arg perigee
255.5781°
Mean anomaly
104.4893°
Rev number
8,943

§ Raw data

STARLINK-336041 63070U 25035U   26263.00829491  .00009526  00000+0  35521-3 0  99932 63070  43.0017 130.0717 0001597 255.5781 104.4893 15.27584478 89431

JSON: /api/v1/satellites/63070 · /tle

For live sub-satellite position, see the globe view (requires WebGL).

§ Visibility from observer

Set your observer location to see the next 7 days of passes ≥ 10°. The values pass through the URL so the page stays shareable.

No JS? Fill the form by hand. The geolocation button needs JavaScript.